Time,TemperatureF,DewpointF,PressureIn,WindDirection,WindDirectionDegrees,WindSpeedMPH,WindSpeedGustMPH,Humidity,HourlyPrecipIn,Conditions,Clouds,dailyrainin,SoftwareType,DateUTC
2013-06-13 00:13:00,82.8,71.0,29.61,West,279,7.0,15.0,68,0.00,,,0.01,weatherlink.com 1.10,2013-06-13 05:13:00,
2013-06-13 00:28:00,82.5,71.0,29.61,West,276,9.0,23.0,69,0.00,,,0.01,weatherlink.com 1.10,2013-06-13 05:28:00,
2013-06-13 00:43:00,76.7,68.0,29.63,NNE,33,12.0,20.0,75,0.00,,,0.01,weatherlink.com 1.10,2013-06-13 05:43:00,
2013-06-13 00:58:00,73.5,67.0,29.63,North,355,11.0,16.0,81,0.00,,,0.00,weatherlink.com 1.10,2013-06-13 05:58:00,
2013-06-13 01:13:00,71.9,66.0,29.62,NNE,19,6.0,12.0,82,0.00,,,0.00,weatherlink.com 1.10,2013-06-13 06:13:00,
2013-06-13 01:28:00,70.8,66.0,29.63,ENE,61,5.0,8.0,85,0.00,,,0.00,weatherlink.com 1.10,2013-06-13 06:28:00,
2013-06-13 01:43:00,70.1,65.0,29.62,ENE,65,2.0,8.0,85,0.00,,,0.00,weatherlink.com 1.10,2013-06-13 06:43:00,
2013-06-13 01:58:00,69.6,65.0,29.62,East,82,3.0,5.0,86,0.00,,,0.00,weatherlink.com 1.10,2013-06-13 06:58:00,
2013-06-13 02:13:00,69.4,65.0,29.63,East,80,2.0,5.0,87,0.00,,,0.00,weatherlink.com 1.10,2013-06-13 07:13:00,
2013-06-13 02:28:00,69.1,66.0,29.64,SSW,194,2.0,6.0,88,0.00,,,0.00,weatherlink.com 1.10,2013-06-13 07:28:00,
2013-06-13 02:43:00,69.1,66.0,29.64,SSW,194,0.0,4.0,88,0.00,,,0.00,weatherlink.com 1.10,2013-06-13 07:43:00,
2013-06-13 02:58:00,69.2,66.0,29.64,SSW,194,0.0,5.0,88,0.00,,,0.00,weatherlink.com 1.10,2013-06-13 07:58:00,
2013-06-13 03:13:00,69.0,65.0,29.64,SSW,194,4.0,4.0,88,0.00,,,0.00,weatherlink.com 1.10,2013-06-13 08:13:00,
2013-06-13 03:28:00,69.2,66.0,29.63,WSW,240,4.0,8.0,88,0.00,,,0.00,weatherlink.com 1.10,2013-06-13 08:28:00,
2013-06-13 03:43:00,69.5,66.0,29.64,WSW,252,3.0,7.0,88,0.00,,,0.00,weatherlink.com 1.10,2013-06-13 08:43:00,
2013-06-13 03:58:00,70.2,66.0,29.65,WNW,299,7.0,12.0,87,0.00,,,0.00,weatherlink.com 1.10,2013-06-13 08:58:00,
2013-06-13 04:14:00,69.6,66.0,29.67,NNE,24,2.0,18.0,87,0.00,,,0.00,weatherlink.com 1.10,2013-06-13 09:14:00,
2013-06-13 04:29:00,67.9,65.0,29.67,NNE,25,5.0,10.0,91,0.00,,,0.00,weatherlink.com 1.10,2013-06-13 09:29:00,
2013-06-13 04:44:00,67.4,65.0,29.68,NNE,28,9.0,12.0,91,0.00,,,0.00,weatherlink.com 1.10,2013-06-13 09:44:00,
2013-06-13 04:59:00,66.5,64.0,29.70,NNW,345,7.0,17.0,91,0.00,,,0.00,weatherlink.com 1.10,2013-06-13 09:59:00,
2013-06-13 05:14:00,66.1,64.0,29.71,North,5,12.0,17.0,91,0.00,,,0.00,weatherlink.com 1.10,2013-06-13 10:14:00,
2013-06-13 05:29:00,65.5,63.0,29.72,North,349,8.0,16.0,91,0.00,,,0.00,weatherlink.com 1.10,2013-06-13 10:29:00,
2013-06-13 05:44:00,65.2,63.0,29.73,North,10,7.0,20.0,92,0.00,,,0.00,weatherlink.com 1.10,2013-06-13 10:44:00,
2013-06-13 05:59:00,65.4,63.0,29.74,NNW,338,13.0,15.0,92,0.00,,,0.00,weatherlink.com 1.10,2013-06-13 10:59:00,
2013-06-13 06:14:00,65.4,63.0,29.75,North,360,14.0,18.0,91,0.00,,,0.00,weatherlink.com 1.10,2013-06-13 11:14:00,
2013-06-13 06:29:00,65.5,63.0,29.76,North,5,4.0,18.0,90,0.00,,,0.00,weatherlink.com 1.10,2013-06-13 11:29:00,
2013-06-13 06:44:00,65.6,63.0,29.77,North,360,8.0,20.0,90,0.00,,,0.00,weatherlink.com 1.10,2013-06-13 11:44:00,
2013-06-13 06:59:00,65.7,62.0,29.78,North,360,9.0,13.0,89,0.00,,,0.00,weatherlink.com 1.10,2013-06-13 11:59:00,
2013-06-13 07:14:00,66.4,63.0,29.79,NNW,344,6.0,16.0,88,0.00,,,0.00,weatherlink.com 1.10,2013-06-13 12:14:00,
2013-06-13 07:29:00,67.3,62.0,29.79,North,5,7.0,16.0,84,0.00,,,0.00,weatherlink.com 1.10,2013-06-13 12:29:00,
2013-06-13 07:44:00,67.2,62.0,29.81,NNE,32,7.0,17.0,84,0.00,,,0.00,weatherlink.com 1.10,2013-06-13 12:44:00,
2013-06-13 07:59:00,66.3,59.0,29.81,NE,35,13.0,24.0,78,0.00,,,0.00,weatherlink.com 1.10,2013-06-13 12:59:00,
2013-06-13 08:14:00,67.2,60.0,29.82,NNE,14,20.0,23.0,77,0.00,,,0.00,weatherlink.com 1.10,2013-06-13 13:14:00,
2013-06-13 08:29:00,67.2,59.0,29.83,North,5,19.0,24.0,76,0.00,,,0.00,weatherlink.com 1.10,2013-06-13 13:29:00,
2013-06-13 08:44:00,68.4,60.0,29.84,NNE,26,15.0,25.0,75,0.00,,,0.00,weatherlink.com 1.10,2013-06-13 13:44:00,
2013-06-13 08:59:00,68.6,59.0,29.85,North,360,18.0,25.0,71,0.00,,,0.00,weatherlink.com 1.10,2013-06-13 13:59:00,
2013-06-13 09:15:00,68.9,58.0,29.86,NE,44,8.0,21.0,69,0.00,,,0.00,weatherlink.com 1.10,2013-06-13 14:15:00,
2013-06-13 09:30:00,69.5,58.0,29.85,NE,37,14.0,19.0,67,0.00,,,0.00,weatherlink.com 1.10,2013-06-13 14:30:00,
2013-06-13 09:45:00,70.9,58.0,29.85,NNE,33,13.0,24.0,65,0.00,,,0.00,weatherlink.com 1.10,2013-06-13 14:45:00,
2013-06-13 10:00:00,71.2,58.0,29.86,NE,38,15.0,20.0,63,0.00,,,0.00,weatherlink.com 1.10,2013-06-13 15:00:00,
2013-06-13 10:15:00,71.8,59.0,29.88,NNE,21,8.0,19.0,65,0.00,,,0.00,weatherlink.com 1.10,2013-06-13 15:15:00,
2013-06-13 10:30:00,72.8,60.0,29.88,North,5,14.0,21.0,64,0.00,,,0.00,weatherlink.com 1.10,2013-06-13 15:30:00,
2013-06-13 10:45:00,73.5,60.0,29.89,NNW,327,9.0,18.0,62,0.00,,,0.00,weatherlink.com 1.10,2013-06-13 15:45:00,
2013-06-13 11:00:00,74.4,61.0,29.89,NNE,33,12.0,17.0,63,0.00,,,0.00,weatherlink.com 1.10,2013-06-13 16:00:00,
2013-06-13 11:15:00,75.1,60.0,29.90,NE,42,10.0,17.0,60,0.00,,,0.00,weatherlink.com 1.10,2013-06-13 16:15:00,
2013-06-13 11:30:00,75.1,61.0,29.90,NNE,32,9.0,18.0,61,0.00,,,0.00,weatherlink.com 1.10,2013-06-13 16:30:00,
2013-06-13 11:45:00,75.3,60.0,29.91,North,360,10.0,17.0,59,0.00,,,0.00,weatherlink.com 1.10,2013-06-13 16:45:00,
2013-06-13 12:00:00,75.9,59.0,29.91,NNW,348,15.0,21.0,56,0.00,,,0.00,weatherlink.com 1.10,2013-06-13 17:00:00,
2013-06-13 12:15:00,76.0,59.0,29.91,North,360,14.0,21.0,56,0.00,,,0.00,weatherlink.com 1.10,2013-06-13 17:15:00,
2013-06-13 12:30:00,76.7,59.0,29.91,NE,53,6.0,16.0,54,0.00,,,0.00,weatherlink.com 1.10,2013-06-13 17:30:00,
2013-06-13 12:45:00,77.2,56.0,29.91,North,5,11.0,17.0,48,0.00,,,0.00,weatherlink.com 1.10,2013-06-13 17:45:00,
2013-06-13 13:00:00,78.1,54.0,29.91,North,355,12.0,22.0,44,0.00,,,0.00,weatherlink.com 1.10,2013-06-13 18:00:00,
2013-06-13 13:15:00,77.8,55.0,29.91,NNE,17,10.0,19.0,46,0.00,,,0.00,weatherlink.com 1.10,2013-06-13 18:15:00,
2013-06-13 13:30:00,78.3,55.0,29.92,NNE,14,11.0,22.0,44,0.00,,,0.00,weatherlink.com 1.10,2013-06-13 18:30:00,
2013-06-13 13:46:00,78.5,54.0,29.92,NE,41,12.0,18.0,43,0.00,,,0.00,weatherlink.com 1.10,2013-06-13 18:46:00,
2013-06-13 14:00:00,78.3,53.0,29.93,NNE,22,5.0,19.0,42,0.00,,,0.00,weatherlink.com 1.10,2013-06-13 19:00:00,
2013-06-13 14:15:00,78.1,54.0,29.93,NNE,14,10.0,22.0,43,0.00,,,0.00,weatherlink.com 1.10,2013-06-13 19:15:00,
2013-06-13 14:30:00,79.0,54.0,29.93,North,5,13.0,23.0,42,0.00,,,0.00,weatherlink.com 1.10,2013-06-13 19:30:00,
2013-06-13 14:45:00,80.1,54.0,29.93,NNE,22,10.0,16.0,41,0.00,,,0.00,weatherlink.com 1.10,2013-06-13 19:45:00,
2013-06-13 15:00:00,78.1,54.0,29.93,North,360,8.0,20.0,43,0.00,,,0.00,weatherlink.com 1.10,2013-06-13 20:00:00,
2013-06-13 15:15:00,78.6,54.0,29.93,NNW,336,7.0,19.0,42,0.00,,,0.00,weatherlink.com 1.10,2013-06-13 20:15:00,
2013-06-13 15:30:00,79.1,53.0,29.93,NNE,17,15.0,18.0,41,0.00,,,0.00,weatherlink.com 1.10,2013-06-13 20:30:00,
2013-06-13 15:45:00,78.3,54.0,29.93,NNE,12,8.0,19.0,43,0.00,,,0.00,weatherlink.com 1.10,2013-06-13 20:45:00,
2013-06-13 16:00:00,78.2,53.0,29.93,NNE,17,4.0,18.0,41,0.00,,,0.00,weatherlink.com 1.10,2013-06-13 21:00:00,
2013-06-13 16:15:00,79.4,54.0,29.93,North,5,7.0,21.0,41,0.00,,,0.00,weatherlink.com 1.10,2013-06-13 21:15:00,
2013-06-13 16:30:00,79.3,54.0,29.93,North,360,6.0,13.0,42,0.00,,,0.00,weatherlink.com 1.10,2013-06-13 21:30:00,
2013-06-13 16:45:00,79.6,54.0,29.92,NNE,29,3.0,17.0,41,0.00,,,0.00,weatherlink.com 1.10,2013-06-13 21:45:00,
2013-06-13 17:00:00,79.3,55.0,29.92,North,11,14.0,16.0,43,0.00,,,0.00,weatherlink.com 1.10,2013-06-13 22:00:00,
2013-06-13 17:15:00,79.1,55.0,29.92,North,355,4.0,16.0,43,0.00,,,0.00,weatherlink.com 1.10,2013-06-13 22:15:00,
2013-06-13 17:30:00,79.5,54.0,29.92,North,355,16.0,19.0,41,0.00,,,0.00,weatherlink.com 1.10,2013-06-13 22:30:00,
2013-06-13 17:45:00,78.6,54.0,29.92,NE,48,8.0,14.0,42,0.00,,,0.00,weatherlink.com 1.10,2013-06-13 22:45:00,
2013-06-13 18:00:00,78.5,54.0,29.92,North,5,6.0,14.0,43,0.00,,,0.00,weatherlink.com 1.10,2013-06-13 23:00:00,
2013-06-13 18:15:00,78.6,54.0,29.92,North,5,5.0,18.0,42,0.00,,,0.00,weatherlink.com 1.10,2013-06-13 23:15:00,
2013-06-13 18:30:00,78.4,53.0,29.92,NNE,22,11.0,15.0,42,0.00,,,0.00,weatherlink.com 1.10,2013-06-13 23:30:00,
2013-06-13 18:45:00,78.1,52.0,29.93,NNW,330,9.0,16.0,41,0.00,,,0.00,weatherlink.com 1.10,2013-06-13 23:45:00,
2013-06-13 19:15:00,78.1,53.0,29.95,NNE,19,7.0,16.0,42,0.00,,,0.00,weatherlink.com 1.10,2013-06-14 00:15:00,
2013-06-13 19:30:00,77.7,52.0,29.95,NNW,346,5.0,15.0,41,0.00,,,0.00,weatherlink.com 1.10,2013-06-14 00:30:00,
2013-06-13 19:45:00,77.0,53.0,29.96,NNE,13,3.0,12.0,44,0.00,,,0.00,weatherlink.com 1.10,2013-06-14 00:45:00,
2013-06-13 20:01:00,76.2,53.0,29.96,NNE,25,6.0,14.0,45,0.00,,,0.00,weatherlink.com 1.10,2013-06-14 01:01:00,
2013-06-13 20:16:00,73.5,58.0,29.96,ENE,76,4.0,10.0,59,0.00,,,0.00,weatherlink.com 1.10,2013-06-14 01:16:00,
2013-06-13 20:31:00,72.1,58.0,29.97,East,79,8.0,8.0,62,0.00,,,0.00,weatherlink.com 1.10,2013-06-14 01:31:00,
2013-06-13 20:46:00,71.2,58.0,29.97,ENE,71,2.0,7.0,64,0.00,,,0.00,weatherlink.com 1.10,2013-06-14 01:46:00,
2013-06-13 21:01:00,70.0,58.0,29.97,East,96,2.0,6.0,66,0.00,,,0.00,weatherlink.com 1.10,2013-06-14 02:01:00,
2013-06-13 21:16:00,68.8,58.0,29.97,East,80,1.0,8.0,69,0.00,,,0.00,weatherlink.com 1.10,2013-06-14 02:16:00,
2013-06-13 21:31:00,67.9,58.0,29.97,East,80,5.0,9.0,70,0.00,,,0.00,weatherlink.com 1.10,2013-06-14 02:31:00,
2013-06-13 21:46:00,67.1,57.0,29.98,East,82,8.0,13.0,69,0.00,,,0.00,weatherlink.com 1.10,2013-06-14 02:46:00,
2013-06-13 22:01:00,66.2,57.0,29.98,East,86,7.0,9.0,71,0.00,,,0.00,weatherlink.com 1.10,2013-06-14 03:01:00,
2013-06-13 22:16:00,65.5,56.0,29.98,ENE,76,4.0,9.0,72,0.00,,,0.00,weatherlink.com 1.10,2013-06-14 03:16:00,
2013-06-13 22:31:00,64.9,56.0,29.98,ESE,104,4.0,10.0,73,0.00,,,0.00,weatherlink.com 1.10,2013-06-14 03:31:00,
2013-06-13 22:46:00,64.3,55.0,29.98,ENE,76,5.0,11.0,73,0.00,,,0.00,weatherlink.com 1.10,2013-06-14 03:46:00,
2013-06-13 23:01:00,63.9,55.0,29.99,East,84,5.0,13.0,73,0.00,,,0.00,weatherlink.com 1.10,2013-06-14 04:01:00,
2013-06-13 23:16:00,63.4,54.0,29.99,ENE,70,7.0,11.0,72,0.00,,,0.00,weatherlink.com 1.10,2013-06-14 04:16:00,
2013-06-13 23:31:00,63.0,54.0,29.99,East,91,2.0,11.0,72,0.00,,,0.00,weatherlink.com 1.10,2013-06-14 04:31:00,
2013-06-13 23:46:00,62.5,54.0,29.99,ENE,68,4.0,9.0,73,0.00,,,0.00,weatherlink.com 1.10,2013-06-14 04:46:00,